(511045) = 2013 RG64

Discovered at Haleakala on 2013-08-15 by Pan-STARRS 1.

Orbit

Orbit type: Jupiter Trojan

Note: WebGL enabled browser required.

epoch2022-01-21.0
epoch JD2459600.5
perihelion date2013-06-12.10480
perihelion JD2456455.60480
argument of perihelion (°)171.85716
ascending node (°)169.59746
inclination (°)7.80502
eccentricity0.0829389
perihelion distance (AU)4.7776199
Tisserand w.r.t. Jupiter3.0
ΔV w.r.t. Earth (km/sec)12.4
semimajor axis (AU)5.2097071
mean anomaly (°)260.66941
mean daily motion (°/day)0.08288650
aphelion distance (AU)5.642
period (years)11.89
P-vector [x]0.94830898
P-vector [y]-0.29827757
P-vector [z]-0.10835392
Q-vector [x]0.31639976
Q-vector [y]0.91503793
Q-vector [z]0.25019349
absolute magnitude14.56
phase slope0.15
uncertainty0
referenceMPO 701132
observations used91
oppositions12
arc length (days)7941
first opposition used2000
last opposition used2022
residual rms (arc-secs)0.38
perturbers coarse indicatorM-v
perturbers precise indicator003Ek
first observation date used2000-08-01.0
last observation date used2022-04-29.0
computer namePan
JD of orbit computation2458143.195731
perihelion JD uncertainty (days)4.2359E-04
argument of perihelion uncertainty (°)5.0865E-05
ascending node uncertainty (°)3.4590E-05
inclination uncertainty (°)4.9187E-06
eccentricity uncertainty 8.3659E-08
perihelion distance uncertainty (AU)3.6837E-07
Minimum Orbit Intersection Distances (in AU)
for orbit epoch: 2458200.5, reference: MPO428992
Mercury4.41359
Venus4.07852
Earth3.79444
Mars3.42284
Jupiter0.130059
Saturn3.66078
Uranus12.5577
Neptune24.5025

Observations

94 total observations over interval: 2000 08 01.18609 – 2022 05 22.483315
These data are available for download (format description).

Date (UT) J2000 RA J2000 Dec Magn Location Ref
2000 08 01.18609 21 13 05.94 -10 22 15.7 20.6 R 807 – Cerro Tololo Observatory, La Serena MPS 478880
2000 08 01.25926 21 13 03.73 -10 22 28.5   807 – Cerro Tololo Observatory, La Serena MPS 478880
2001 08 21.31880 23 53 57.91 -01 07 29.4 20.0 R 807 – Cerro Tololo Observatory, La Serena MPS 478880
2001 08 21.38670 23 53 56.43 -01 07 42.6   807 – Cerro Tololo Observatory, La Serena MPS 478880
2008 04 06.31177 12 06 07.27 +01 48 44.2 21.5 V G96 – Mt. Lemmon Survey MPS 478880
2008 04 06.31858 12 06 07.09 +01 48 45.7 21.2 V G96 – Mt. Lemmon Survey MPS 478880
2008 04 06.32524 12 06 06.91 +01 48 47.4 21.8 V G96 – Mt. Lemmon Survey MPS 478880
2008 04 06.33191 12 06 06.73 +01 48 48.4 21.4 V G96 – Mt. Lemmon Survey MPS 478880
2009 04 21.39314 14 02 59.24 -05 48 12.8 21.4 V G96 – Mt. Lemmon Survey MPS 478880
2009 04 21.40065 14 02 58.99 -05 48 11.2 21.8 V G96 – Mt. Lemmon Survey MPS 478880
2009 04 21.40822 14 02 58.81 -05 48 09.7 21.9 V G96 – Mt. Lemmon Survey MPS 478880
2012 11 04.221312 20 44 23.829 -14 13 39.61 22.1 w F51 – Pan-STARRS 1, Haleakala MPS 478880
2012 11 04.226826 20 44 23.967 -14 13 39.19 22.1 w F51 – Pan-STARRS 1, Haleakala MPS 478880
2012 11 04.232363 20 44 24.133 -14 13 39.09 22.1 w F51 – Pan-STARRS 1, Haleakala MPS 478880
2013 08 15.50595 23 42 42.653 -01 43 58.55 21.4 w F51 – Pan-STARRS 1, Haleakala MPS 477857
2013 08 15.52151 23 42 42.338 -01 44 01.27 21.4 w F51 – Pan-STARRS 1, Haleakala MPS 477857
2013 08 15.53709 23 42 42.042 -01 44 04.29 21.5 w F51 – Pan-STARRS 1, Haleakala MPS 477857
2013 09 03.42946 23 35 18.134 -02 52 05.40 21.2 w F51 – Pan-STARRS 1, Haleakala MPS 477857
2013 09 03.44434 23 35 17.718 -02 52 08.97 21.3 w F51 – Pan-STARRS 1, Haleakala MPS 477857
2013 09 03.45927 23 35 17.301 -02 52 12.61 21.2 w F51 – Pan-STARRS 1, Haleakala MPS 477857
2013 09 12.26002 23 31 12.30 -03 28 05.5 20.6 V G96 – Mt. Lemmon Survey MPS 476608
2013 09 12.27024 23 31 11.97 -03 28 07.9 20.3 V G96 – Mt. Lemmon Survey MPS 476608
2013 09 12.28043 23 31 11.66 -03 28 10.4 20.6 V G96 – Mt. Lemmon Survey MPS 476608
2013 09 12.29057 23 31 11.39 -03 28 13.0 20.7 V G96 – Mt. Lemmon Survey MPS 476608
2013 09 15.30947 23 29 45.61 -03 40 40.0 20.6 V G96 – Mt. Lemmon Survey MPS 476608
2013 09 15.31733 23 29 45.39 -03 40 41.7 20.7 V G96 – Mt. Lemmon Survey MPS 476608
2013 09 15.32508 23 29 45.19 -03 40 43.9 20.4 V G96 – Mt. Lemmon Survey MPS 476608
2013 09 15.33281 23 29 44.93 -03 40 45.8 21.3 V G96 – Mt. Lemmon Survey MPS 476608
2014 10 18.31806 02 02 35.21 +05 47 43.7 20.8 V G96 – Mt. Lemmon Survey MPS 540547
2014 10 18.32452 02 02 34.98 +05 47 42.6 20.9 V G96 – Mt. Lemmon Survey MPS 540547
2014 10 18.33098 02 02 34.78 +05 47 41.5 20.8 V G96 – Mt. Lemmon Survey MPS 540547
2014 10 18.33744 02 02 34.61 +05 47 40.0 21.2 V G96 – Mt. Lemmon Survey MPS 540547
2014 10 24.35610 01 59 35.55 +05 26 27.7 20.3 V G96 – Mt. Lemmon Survey MPS 542360
2014 10 24.36303 01 59 35.37 +05 26 26.0 20.5 V G96 – Mt. Lemmon Survey MPS 542360
2014 10 24.36996 01 59 35.17 +05 26 24.9 20.7 V G96 – Mt. Lemmon Survey MPS 542360
2014 10 25.36761 01 59 05.434 +05 22 59.59 21.2 w F51 – Pan-STARRS 1, Haleakala MPS 542360
2014 10 25.39211 01 59 04.701 +05 22 54.62 21.2 w F51 – Pan-STARRS 1, Haleakala MPS 542360
2014 10 25.40441 01 59 04.303 +05 22 52.05 21.2 w F51 – Pan-STARRS 1, Haleakala MPS 542360
2014 11 20.36713 01 47 22.134 +04 10 39.06 21.4 w F51 – Pan-STARRS 1, Haleakala MPS 545777
2014 11 20.38003 01 47 21.829 +04 10 37.60 21.7 w F51 – Pan-STARRS 1, Haleakala MPS 545777
2014 11 20.39293 01 47 21.527 +04 10 36.08 21.6 w F51 – Pan-STARRS 1, Haleakala MPS 545777
2014 11 20.40589 01 47 21.254 +04 10 34.55 22.0 w F51 – Pan-STARRS 1, Haleakala MPS 545777
2014 11 22.30818 01 46 40.690 +04 07 02.08 21.7 w F51 – Pan-STARRS 1, Haleakala MPS 547818
2014 11 22.32114 01 46 40.405 +04 07 00.35 21.7 w F51 – Pan-STARRS 1, Haleakala MPS 547818
2014 11 22.33401 01 46 40.118 +04 06 59.12 21.5 w F51 – Pan-STARRS 1, Haleakala MPS 547818
2015 10 08.47995 04 40 27.996 +13 40 24.03 21.9 w F51 – Pan-STARRS 1, Haleakala MPS 628741
2015 10 08.49207 04 40 27.879 +13 40 22.22 22.0 w F51 – Pan-STARRS 1, Haleakala MPS 628741
2015 10 08.50424 04 40 27.826 +13 40 20.98 22.1 w F51 – Pan-STARRS 1, Haleakala MPS 628741
2015 10 08.51636 04 40 27.699 +13 40 19.43 22.2 w F51 – Pan-STARRS 1, Haleakala MPS 628741
2015 11 13.38376 04 28 47.72 +12 26 59.0 21.6 V G96 – Mt. Lemmon Survey MPS 645524
2015 11 13.38786 04 28 47.58 +12 26 58.1 22.4 V G96 – Mt. Lemmon Survey MPS 645524
2015 11 13.39196 04 28 47.47 +12 26 57.7 21.6 V G96 – Mt. Lemmon Survey MPS 645524
2015 11 13.39606 04 28 47.37 +12 26 57.6   G96 – Mt. Lemmon Survey MPS 645524
2015 12 04.29848 04 17 43.773 +11 52 15.34 21.5 w F51 – Pan-STARRS 1, Haleakala MPS 657333
2015 12 04.31248 04 17 43.302 +11 52 14.05 21.9 w F51 – Pan-STARRS 1, Haleakala MPS 657333
2015 12 04.33930 04 17 42.430 +11 52 12.13 21.4 w F51 – Pan-STARRS 1, Haleakala MPS 657333
2015 12 08.44877 04 15 31.852 +11 47 15.59 21.5 w F51 – Pan-STARRS 1, Haleakala MPS 657333
2015 12 08.46001 04 15 31.477 +11 47 14.73 21.7 w F51 – Pan-STARRS 1, Haleakala MPS 657333
2015 12 08.47121 04 15 31.149 +11 47 14.11 21.6 w F51 – Pan-STARRS 1, Haleakala MPS 657333
2015 12 08.48233 04 15 30.776 +11 47 13.47 21.6 w F51 – Pan-STARRS 1, Haleakala MPS 657333
2017 12 24.45520 08 48 11.974 +11 11 20.46 22.2 w F51 – Pan-STARRS 1, Haleakala MPS 851587
2017 12 24.46682 08 48 11.733 +11 11 20.99 22.3 w F51 – Pan-STARRS 1, Haleakala MPS 851587
2017 12 24.47840 08 48 11.493 +11 11 21.56 22.1 w F51 – Pan-STARRS 1, Haleakala MPS 851587
2017 12 24.49000 08 48 11.262 +11 11 22.65 21.9 w F51 – Pan-STARRS 1, Haleakala MPS 851587
2018 01 20.50399 08 36 32.961 +11 57 01.71 21.7 w F51 – Pan-STARRS 1, Haleakala MPS 861848
2018 01 20.51620 08 36 32.601 +11 57 03.21 21.9 w F51 – Pan-STARRS 1, Haleakala MPS 861848
2018 01 20.52842 08 36 32.217 +11 57 05.08 21.9 w F51 – Pan-STARRS 1, Haleakala MPS 861848
2018 01 20.54069 08 36 31.847 +11 57 06.56 21.9 w F51 – Pan-STARRS 1, Haleakala MPS 861848
2018 01 24.27401 08 34 38.68 +12 05 46.2 22.0 G G96 – Mt. Lemmon Survey MPS 861848
2018 01 24.27912 08 34 38.57 +12 05 46.6 21.0 G G96 – Mt. Lemmon Survey MPS 861848
2018 01 24.28423 08 34 38.28 +12 05 47.4 22.3 G G96 – Mt. Lemmon Survey MPS 861848
2018 01 24.28935 08 34 38.08 +12 05 49.3 21.5 G G96 – Mt. Lemmon Survey MPS 861848
2019 04 07.24501 10 09 22.313 +09 29 00.08 22.0 w F51 – Pan-STARRS 1, Haleakala MPS 990553
2019 04 07.25537 10 09 22.150 +09 29 01.44 22.2 w F51 – Pan-STARRS 1, Haleakala MPS 990553
2019 04 07.26569 10 09 22.003 +09 29 02.88 22.3 w F51 – Pan-STARRS 1, Haleakala MPS 990553
2021 04 15.465093 14 09 14.365 -06 18 56.87 21.58 w F51 – Pan-STARRS 1, Haleakala MPS 1400701
2021 04 15.478358 14 09 13.981 -06 18 54.11 21.92 w F51 – Pan-STARRS 1, Haleakala MPS 1400701
2021 04 15.491649 14 09 13.605 -06 18 51.71 21.82 w F51 – Pan-STARRS 1, Haleakala MPS 1400701
2021 04 15.504921 14 09 13.212 -06 18 48.84 21.66 w F51 – Pan-STARRS 1, Haleakala MPS 1400701
2021 05 08.355738 13 58 38.763 -05 10 17.22 21.77 w F51 – Pan-STARRS 1, Haleakala MPS 1410835
2021 05 08.366708 13 58 38.469 -05 10 15.26 21.85 w F51 – Pan-STARRS 1, Haleakala MPS 1410835
2021 05 08.377692 13 58 38.164 -05 10 13.49 21.85 w F51 – Pan-STARRS 1, Haleakala MPS 1410835
2021 05 08.388656 13 58 37.890 -05 10 12.37 22.10 w F51 – Pan-STARRS 1, Haleakala MPS 1410835
2021 05 13.374873 13 56 31.044 -04 58 01.21 21.93 w F51 – Pan-STARRS 1, Haleakala MPS 1410835
2021 05 13.387926 13 56 30.716 -04 57 59.56 21.79 w F51 – Pan-STARRS 1, Haleakala MPS 1410835
2021 05 13.401005 13 56 30.394 -04 57 57.81 21.80 w F51 – Pan-STARRS 1, Haleakala MPS 1410835
2021 05 13.414049 13 56 30.063 -04 57 55.71 21.95 w F51 – Pan-STARRS 1, Haleakala MPS 1410835
2022 04 29.461473 16 21 34.212 -12 26 32.06 21.64 w F52 – Pan-STARRS 2, Haleakala MPS 1596295
2022 04 29.471668 16 21 33.978 -12 26 30.83 21.69 w F52 – Pan-STARRS 2, Haleakala MPS 1596295
2022 04 29.481839 16 21 33.732 -12 26 29.69 21.87 w F52 – Pan-STARRS 2, Haleakala MPS 1596295
2022 04 29.492072 16 21 33.462 -12 26 28.20 21.74 w F52 – Pan-STARRS 2, Haleakala MPS 1596295
2022 05 22.450690 16 10 49.735 -11 40 06.92 21.38 w F52 – Pan-STARRS 2, Haleakala MPS 1618440
2022 05 22.472409 16 10 49.062 -11 40 04.29 21.72 w F52 – Pan-STARRS 2, Haleakala MPS 1618440
2022 05 22.483315 16 10 48.728 -11 40 03.22 21.47 w F52 – Pan-STARRS 2, Haleakala MPS 1618440